OK1CMJ-5 Weather Reports


time (UTC)temp
C
wind
direction
speed
KPH
gust
KPH
rain 1hr
cm
rain 24hr
cm
rain mn
cm
humidity
%
barometer
mb
20260507110136 16 336 3.2 6.4 0.00 0.48 0.03 28 1014.1
20260507104336 15 309 1.6 12.9 0.00 0.48 0.03 31 1014.0
20260507103436 15 313 3.2 12.9 0.00 0.48 0.03 28 1014.0
20260507102536 16 302 1.6 11.3 0.00 0.48 0.03 25 1014.0
20260507101636 16 299 3.2 8.0 0.00 0.48 0.03 27 1013.9
20260507100736 17 314 3.2 11.3 0.00 0.48 0.03 25 1013.9
20260507095836 17 271 3.2 12.9 0.00 0.48 0.03 25 1013.8
20260507094936 17 288 4.8 12.9 0.00 0.48 0.03 24 1013.7
20260507094036 16 330 3.2 9.7 0.00 0.48 0.03 27 1013.6
20260507092236 16 329 1.6 12.9 0.00 0.48 0.03 29 1013.5
20260507091336 15 302 1.6 12.9 0.00 0.48 0.03 32 1013.4
20260507090436 15 308 3.2 6.4 0.00 0.48 0.03 30 1013.6
20260507084636 16 319 3.2 22.5 0.00 0.48 0.03 30 1013.3
20260507083736 16 315 4.8 22.5 0.00 0.48 0.03 26 1013.4
20260507082836 17 303 8.0 16.1 0.00 0.48 0.03 25 1013.3
20260507081036 15 330 3.2 12.9 0.00 0.48 0.03 39 1013.1
20260507080136 13 306 3.2 8.0 0.00 0.48 0.03 43 1013.1
20260507075236 13 303 3.2 8.0 0.00 0.48 0.03 44 1013.0
20260507073436 13 320 1.6 6.4 0.00 0.48 0.03 46 1013.1
20260507072536 13 315 1.6 6.4 0.00 0.48 0.03 45 1012.9
20260507071636 13 304 1.6 6.4 0.00 0.48 0.03 46 1012.9
20260507070736 13 292 1.6 4.8 0.00 0.48 0.03 46 1013.0
20260507065836 13 333 1.6 9.7 0.00 0.48 0.03 44 1012.8
20260507064936 15 347 1.6 6.4 0.00 0.48 0.03 43 1012.6
20260507063136 15 305 3.2 11.3 0.00 0.48 0.03 42 1012.4
20260507062236 15 334 0.0 8.0 0.00 0.48 0.03 42 1012.5
20260507061336 16 314 1.6 9.7 0.00 0.48 0.03 41 1012.3
20260507060436 16 328 3.2 6.4 0.00 0.48 0.03 46 1012.2
20260507055536 16 316 1.6 14.5 0.00 0.48 0.03 48 1012.1
20260507054636 15 343 3.2 9.7 0.00 0.48 0.03 52 1012.0
20260507053736 15 281 0.0 8.0 0.00 0.48 0.03 58 1011.7
20260507052836 14 307 0.0 8.0 0.00 0.48 0.03 64 1011.7
20260507051936 14 269 1.6 8.0 0.00 0.48 0.03 71 1011.6
20260507051036 13 286 1.6 6.4 0.00 0.48 0.03 87 1011.6
20260507050136 13 315 3.2 6.4 0.00 0.48 0.03 99 1011.7
20260507045236 12 314 3.2 6.4 0.00 0.48 0.03 99 1011.4
20260507044336 11 334 0.0 11.3 0.00 0.48 0.03 99 1011.2
20260507043436 11 318 3.2 8.0 0.00 0.48 0.03 99 1011.2
20260507042536 11 295 3.2 6.4 0.00 0.48 0.03 99 1011.1
20260507041636 10 339 3.2 16.1 0.00 0.48 0.03 99 1011.0
20260507040736 10 72 3.2 8.0 0.03 0.48 0.03 99 1011.0
20260507034936 10 252 0.0 4.8 0.03 0.48 0.03 99 1010.8
20260507034036 10 292 1.6 14.5 0.03 0.48 0.03 99 1011.0
20260507033136 10 280 1.6 8.0 0.03 0.48 0.03 99 1010.7
20260507032235 10 289 1.6 6.4 0.03 0.48 0.03 99 1010.7
20260507031336 10 281 0.0 12.9 0.03 0.48 0.03 99 1010.9
20260507025536 9 329 0.0 6.4 0.00 0.46 0.00 99 1010.7
20260507024636 9 307 0.0 6.4 0.00 0.46 0.00 99 1010.7
20260507023736 9 300 0.0 6.4 0.00 0.46 0.00 99 1010.6
20260507022835 9 267 1.6 6.4 0.00 0.46 0.00 99 1010.6
20260507021935 9 206 1.6 4.8 0.00 0.46 0.00 99 1010.7
20260507020135 9 325 1.6 6.4 0.00 0.46 0.00 99 1010.3
20260507015236 9 335 1.6 6.4 0.00 0.46 0.00 99 1010.3
20260507014335 9 340 0.0 4.8 0.00 0.46 0.00 99 1010.3
20260507013435 9 321 1.6 9.7 0.00 0.46 0.00 99 1010.4
20260507012536 9 328 0.0 8.0 0.00 0.46 0.00 99 1010.3
20260507011636 9 296 0.0 4.8 0.00 0.46 0.00 99 1010.2
20260507010736 9 61 0.0 3.2 0.00 0.46 0.00 99 1010.2
20260507004935 9 314 0.0 3.2 0.00 0.46 0.00 99 1010.1
20260507003135 10 311 0.0 3.2 0.00 0.46 0.00 99 1009.8
20260507002235 10 313 0.0 3.2 0.00 0.46 0.00 99 1009.9
20260507000435 10 291 0.0 3.2 0.00 0.46 0.00 99 1010.0
20260506235536 10 292 0.0 3.2 0.00 0.46 0.00 99 1010.0
20260506234635 10 274 0.0 3.2 0.00 0.46 0.00 99 1009.9
20260506233735 10 292 0.0 3.2 0.00 0.46 0.00 99 1009.8
20260506232835 10 305 0.0 3.2 0.00 0.46 0.00 99 1009.6
20260506231935 10 299 0.0 3.2 0.00 0.46 0.00 99 1009.5
20260506231036 10 292 0.0 3.2 0.00 0.46 0.00 99 1009.2
20260506230135 10 314 0.0 4.8 0.00 0.46 0.00 97 1009.4
20260506225236 9 1 0.0 3.2 0.00 0.46 0.00 95 1009.4
20260506223436 9 0 0.0 0.0 0.00 0.46 0.00 92 1009.2
20260506222535 10 0 0.0 0.0 0.00 0.46 0.00 92 1009.2
20260506221636 10 0 0.0 0.0 0.00 0.46 0.00 91 1009.2
20260506215835 10 1 0.0 1.6 0.00 0.46 0.46 90 1009.1
20260506214935 10 1 0.0 1.6 0.00 0.46 0.46 89 1009.2
20260506214035 10 0 0.0 0.0 0.00 0.46 0.46 88 1009.2
20260506213135 11 338 0.0 1.6 0.00 0.46 0.46 88 1009.3
20260506212235 11 1 0.0 3.2 0.00 0.46 0.46 87 1009.2
20260506210435 11 347 0.0 1.6 0.00 0.46 0.46 84 1008.7
20260506205535 11 0 0.0 0.0 0.00 0.46 0.46 83 1008.6
20260506204635 11 0 0.0 0.0 0.03 0.46 0.46 82 1008.6
20260506203736 11 291 0.0 3.2 0.13 0.46 0.46 82 1008.4
20260506202836 11 250 0.0 3.2 0.18 0.46 0.46 81 1008.3
20260506201935 11 225 0.0 1.6 0.20 0.46 0.46 79 1008.2
20260506201036 11 225 0.0 1.6 0.28 0.46 0.46 78 1008.3
20260506195235 11 225 0.0 3.2 0.38 0.46 0.46 74 1008.2
20260506194335 11 303 0.0 3.2 0.36 0.43 0.43 73 1008.5
20260506193435 12 1 0.0 3.2 0.23 0.30 0.30 72 1008.6
20260506192535 12 312 0.0 8.0 0.20 0.28 0.28 71 1008.6
20260506190736 13 313 3.2 8.0 0.13 0.18 0.18 57 1008.6
20260506185835 13 334 1.6 6.4 0.03 0.10 0.10 46 1008.3
20260506184935 14 292 0.0 3.2 0.00 0.05 0.05 41 1007.6
20260506184035 14 292 0.0 3.2 0.00 0.10 0.05 39 1007.2
20260506183135 14 292 0.0 3.2 0.00 0.10 0.05 38 1006.8
20260506182235 14 292 0.0 3.2 0.00 0.30 0.05 39 1006.6
20260506181335 15 314 0.0 4.8 0.00 0.30 0.05 39 1006.6
20260506180435 15 314 1.6 4.8 0.00 0.30 0.05 39 1006.4
20260506174635 15 314 3.2 4.8 0.00 0.30 0.05 39 1006.2
20260506173735 16 319 3.2 6.4 0.00 0.30 0.05 38 1006.2
20260506172835 16 331 3.2 11.3 0.00 0.30 0.05 38 1006.1
20260506171935 16 331 3.2 9.7 0.00 0.30 0.05 38 1006.1
20260506171035 16 1 3.2 8.0 0.00 0.30 0.05 36 1006.2
20260506170135 17 345 3.2 6.4 0.00 0.30 0.05 31 1006.1
20260506165235 18 314 1.6 4.8 0.00 0.30 0.05 29 1005.9
20260506163435 19 11 3.2 6.4 0.00 0.30 0.05 25 1005.7
20260506162535 20 326 3.2 8.0 0.00 0.30 0.05 24 1005.9
20260506161635 20 332 3.2 8.0 0.00 0.30 0.05 25 1006.0
20260506160735 20 317 3.2 9.7 0.00 0.30 0.05 25 1006.0
20260506155836 20 336 4.8 9.7 0.00 0.30 0.05 23 1006.2
20260506154935 20 20 3.2 11.3 0.00 0.30 0.05 24 1006.1
20260506154035 20 337 4.8 9.7 0.00 0.30 0.05 25 1006.3
20260506153136 19 325 1.6 6.4 0.00 0.30 0.05 26 1006.6
20260506152235 18 314 1.6 6.4 0.00 0.30 0.05 30 1006.6
20260506151335 18 319 3.2 11.3 0.00 0.30 0.05 26 1006.6
20260506150435 18 317 6.4 12.9 0.00 0.30 0.05 23 1006.8
20260506145535 18 318 4.8 9.7 0.03 0.30 0.05 26 1006.8
20260506144635 18 315 4.8 9.7 0.03 0.30 0.05 24 1006.9
20260506143735 18 13 4.8 8.0 0.05 0.30 0.05 28 1007.0
20260506142835 18 25 1.6 8.0 0.05 0.30 0.05 34 1007.0
20260506141935 17 1 3.2 6.4 0.05 0.30 0.05 41 1007.4
20260506141035 17 45 3.2 4.8 0.05 0.30 0.05 45 1007.5
20260506140135 16 90 3.2 3.2 0.05 0.30 0.05 43 1007.6
20260506134335 17 90 0.0 3.2 0.03 0.28 0.03 30 1007.9
20260506133435 18 344 0.0 6.4 0.00 0.23 0.00 25 1007.7
20260506132535 18 350 1.6 3.2 0.00 0.23 0.00 23 1007.7
20260506131635 18 1 0.0 3.2 0.00 0.23 0.00 21 1007.6
20260506125835 20 90 0.0 6.4 0.00 0.23 0.00 19 1007.7
20260506124935 20 90 1.6 6.4 0.00 0.23 0.00 19 1007.8
20260506124035 21 129 3.2 6.4 0.00 0.23 0.00 17 1007.9
20260506122235 21 157 3.2 9.7 0.00 0.23 0.00 17 1008.1
20260506121335 21 130 3.2 6.4 0.00 0.23 0.00 14 1008.2
20260506120435 22 144 1.6 6.4 0.00 0.23 0.00 15 1008.2
20260506115535 22 110 3.2 9.7 0.00 0.23 0.00 15 1008.2
20260506111935 21 352 3.2 11.3 0.00 0.23 0.00 17 1008.5
20260506111035 21 110 3.2 6.4 0.00 0.23 0.00 16 1008.5